Weather in Yembayevo

Russia / Tyumen Oblast     57°09′02″N   65°45′53″E
temp.,
°C
wind,
m/s
gust,
m/s
humid.,
%
clouds,
%
prec.,
mm/h
press.,
hPa
HPBL,
m
16 may, sun
sun1623:00+24wnw512376 0.1 1015363
02:00+19wnw3349100 0.0 101639
05:00+18w3654100 0.0 1017103
08:00+23w5104885 0.0 1016438
11:00+28wnw610376 0.1 10161387
14:00+31wnw610275 0.0 10162519
17:00+32wnw6102316 0.0 10163071
20:00+27wsw343519 0.0 101551
17 may, mon
mon1723:00+22w483576 0.0 1015123
02:00+20w4114157 0.0 1015189
05:00+19wsw412515 0.0 1016205
08:00+24w59435 0.0 1016459
11:00+30w610273 0.0 10153031
14:00+30wsw71023100 0.0 10143549
17:00+30wnw7112320 0.0 10121503
20:00+26nw8143268 0.0 1013903
18 may, tue
tue1823:00+17ssw2376100 0.5 101354
02:00+17wsw357111 0.2 101395
05:00+17w377296 0.2 1012182
08:00+22nw58538 0.0 1012579
11:00+22nw474843 0.0 10121207
14:00+20nnw695989 0.4 10141169
17:00+17n7961100 0.5 10161275
20:00+13nne61070100 0.1 10191206
19 may, wed
wed1923:00+12nne61062100 0.1 10211547
02:00+10n511685 0.0 1023459
05:00+8n39763 0.0 1024277
08:00+13nne46515 0.0 1025858
11:00+17nne453668 0.0 10251613
14:00+19n343017 0.0 10241809
17:00+20n34305 0.0 10231923
20:00+17nne114332 0.0 102311
20 may, thu
thu2023:00+13sse004878 0.0 102411
02:00+12wsw22536 0.0 102411
05:00+11wsw346052 0.0 102368
08:00+17w58477 0.0 1023426
11:00+22w57336 0.0 10221497
14:00+25w68285 0.0 10202058
17:00+26w57255 0.0 10192076
20:00+22w33415 0.0 101844